[[{"header":{"parameterUnit":"m.s-1","parameterCategory":1,"la1":30.2992,"la2":30.254,"lo1":-89.0895,"lo2":-89.0443,"dy":0.0025,"dx":0.0025,"nx":19,"ny":19,"refTime":"2026-04-06T21:00:00:Z","depth":0,"parameterNumber":2,"parameterNumberName":"U-component_of_WINDS"},"data":[0,0,0,-4.8653,-4.8654,-4.8656,-4.8656,-4.8697,-4.8698,0,0,0,0,0,0,0,0,0,0,0,-4.8674,-4.8675,-4.8653,-4.8654,-4.8656,-4.8656,-4.8697,-4.8698,0,0,0,0,0,0,0,0,0,0,0,-4.8673,-4.8674,-4.8676,-4.8654,-4.8656,-4.8656,-4.8697,-4.8682,0,0,0,0,0,0,0,0,0,0,-4.8673,-4.8713,-4.8674,-4.8676,-4.8654,-4.8656,-4.8656,-4.8681,-4.8683,-4.8712,0,-4.8742,0,-4.8721,-4.8703,-4.8704,0,0,0,-4.8638,-4.8711,-4.8692,-4.8676,-4.8654,-4.8656,-4.8651,-4.8681,-4.8684,-4.8716,-4.8743,-4.8743,-4.8722,-4.8704,-4.8704,-4.8924,-4.8926,0,0,-4.8638,-4.8686,-4.8691,-4.8695,-4.8695,-4.8651,-4.8651,-4.8682,-4.8716,-4.8743,-4.8744,-4.8723,-4.8704,-4.8705,-4.8922,-4.8925,0,0,0,-4.8648,-4.8687,-4.8666,-4.8694,-4.8692,-4.8651,-4.8651,-4.8714,-4.8704,-4.8744,-4.8723,-4.8705,-4.8706,-4.892,-4.8923,-4.9059,0,0,0,-4.8647,-4.8692,-4.8667,-4.8697,-4.8692,-4.8703,-4.8683,-4.8702,-4.8703,-4.8723,-4.8705,-4.8706,-4.8918,-4.8922,-4.9051,-4.9116,0,0,0,-4.8666,-4.8694,-4.8702,-4.8699,-4.8702,-4.8701,-4.8692,-4.8701,-4.8692,-4.8704,-4.8707,-4.8917,-4.8921,-4.9044,-4.9104,-4.9191,0,0,0,-4.8701,-4.8821,-4.8705,-4.8832,-4.8702,-4.8784,-4.8691,-4.875,-4.8776,-4.8705,-4.8919,-4.8923,-4.9042,-4.9097,-4.9183,-4.9274,-4.9315,0,0,-4.888,-4.8845,-4.8916,-4.8811,-4.8927,-4.878,-4.8916,-4.8894,-4.8851,-4.8903,-4.8907,-4.9054,-4.9103,-4.9189,-4.9527,-4.956,0,0,0,-4.8989,-4.9041,-4.9061,-4.9088,-4.9074,-4.9069,-4.9021,-4.9013,-4.9055,-4.8887,-4.9105,-4.9133,-4.9182,-4.9223,-4.9252,-4.9292,-4.8943,-4.8943,-4.8942,-4.9313,-4.9252,-4.9366,-4.9307,-4.9334,-4.9285,-4.9303,-4.9284,-4.9213,-4.9266,-4.9282,-4.9494,-4.9544,-4.9565,-4.9608,-4.9322,-4.9323,-4.9323,-4.9324,-4.9572,-4.9638,-4.9542,-4.9619,-4.9555,-4.9619,-4.9577,-4.9526,-4.9578,-4.9476,-4.9516,-4.9413,-4.9604,-4.9638,-4.9333,-4.9332,-4.933,-4.9329,-4.9329,-4.978,-4.9801,-4.979,-4.9825,-4.9859,-4.9794,-4.9849,-4.9787,-4.973,-4.9769,-4.9781,-4.9779,-4.9771,-4.9778,-4.9779,-4.978,-4.9781,-4.9781,-4.9781,-5.0001,-4.9984,-5.0038,-5.0035,-5.0046,-5.0053,-5.0006,-5.0015,-5.0011,-4.9962,-4.9961,-4.9889,-4.9632,-4.9571,-4.9793,-4.9791,-4.9789,-4.9788,-4.9787,-5.0292,-5.0217,-5.03,-5.0312,-5.0305,-5.0346,-5.0266,-5.0291,-5.029,-5.032,-5.0238,-5.0058,-5.0018,-4.9995,-4.9944,-5.0249,-5.0249,-5.0249,-5.0249,-5.047,-5.0443,-5.0516,-5.0539,-5.0553,-5.0491,-5.0591,-5.0557,-5.0509,-5.0506,-5.0452,-5.0378,-5.0357,-5.033,-5.0299,-5.0251,-5.0627,-5.0628,-5.0628,-5.0646,-5.0619,-5.0715,-5.0667,-5.0658,-5.0653,-5.0745,-5.0777,-5.0707,-5.0642,-5.0502,-5.0486,-5.0367,-5.033,-5.0264,-5.0218,-5.0128,0,0]},{"header":{"parameterUnit":"m.s-1","parameterCategory":1,"la1":30.2992,"la2":30.254,"lo1":-89.0895,"lo2":-89.0443,"dy":0.0025,"dx":0.0025,"nx":19,"ny":19,"refTime":"2026-04-06T21:00:00:Z","depth":0,"parameterNumber":3,"parameterNumberName":"V-component_of_WINDS"},"data":[0,0,0,-1.4658,-1.4659,-1.4714,-1.4715,-1.479,-1.4791,0,0,0,0,0,0,0,0,0,0,0,-1.4645,-1.4645,-1.4658,-1.4659,-1.4714,-1.4715,-1.479,-1.4791,0,0,0,0,0,0,0,0,0,0,0,-1.4645,-1.4645,-1.4646,-1.466,-1.4714,-1.4715,-1.479,-1.4747,0,0,0,0,0,0,0,0,0,0,-1.4692,-1.4683,-1.4645,-1.4646,-1.466,-1.4714,-1.4715,-1.4744,-1.4749,-1.4767,0,-1.4784,0,-1.4789,-1.4796,-1.4796,0,0,0,-1.4657,-1.4679,-1.4691,-1.4646,-1.4661,-1.4714,-1.4689,-1.4747,-1.4753,-1.4774,-1.4785,-1.4788,-1.479,-1.4797,-1.4797,-1.4908,-1.4909,0,0,-1.4654,-1.4657,-1.4687,-1.4695,-1.4686,-1.4687,-1.4691,-1.475,-1.4763,-1.4785,-1.4789,-1.4791,-1.4797,-1.4798,-1.4908,-1.4908,0,0,0,-1.4647,-1.4655,-1.4665,-1.4692,-1.4701,-1.4689,-1.4693,-1.476,-1.4763,-1.479,-1.4792,-1.4798,-1.4799,-1.4907,-1.4908,-1.4942,0,0,0,-1.4645,-1.465,-1.4664,-1.4666,-1.47,-1.4731,-1.4702,-1.4759,-1.4766,-1.4792,-1.4798,-1.4799,-1.4906,-1.4907,-1.494,-1.4959,0,0,0,-1.464,-1.465,-1.4659,-1.4666,-1.4689,-1.473,-1.4737,-1.4761,-1.4767,-1.4797,-1.48,-1.4906,-1.4907,-1.4937,-1.4955,-1.499,0,0,0,-1.4636,-1.4688,-1.4659,-1.4718,-1.4689,-1.475,-1.4736,-1.4782,-1.4811,-1.4798,-1.4906,-1.4908,-1.4937,-1.4953,-1.4988,-1.5021,-1.5035,0,0,-1.4703,-1.4696,-1.473,-1.4706,-1.4773,-1.4742,-1.4814,-1.4838,-1.4839,-1.4885,-1.4888,-1.494,-1.4955,-1.4989,-1.5106,-1.5117,0,0,0,-1.4752,-1.4777,-1.4794,-1.4822,-1.4841,-1.486,-1.4872,-1.4881,-1.492,-1.4863,-1.4961,-1.4969,-1.499,-1.5006,-1.5015,-1.5033,-1.4915,-1.4914,-1.4914,-1.4853,-1.485,-1.4906,-1.491,-1.4937,-1.4949,-1.497,-1.4984,-1.4974,-1.4997,-1.5012,-1.5083,-1.5102,-1.5109,-1.5127,-1.5027,-1.5027,-1.5027,-1.5027,-1.4953,-1.4988,-1.4971,-1.5021,-1.5017,-1.5059,-1.5072,-1.5062,-1.5101,-1.5071,-1.5089,-1.506,-1.5121,-1.5137,-1.503,-1.5029,-1.5029,-1.5029,-1.5029,-1.5021,-1.5037,-1.5046,-1.5085,-1.5115,-1.5116,-1.5154,-1.5148,-1.5144,-1.5161,-1.5177,-1.5177,-1.5177,-1.5168,-1.5169,-1.5169,-1.5169,-1.5169,-1.5169,-1.5089,-1.5098,-1.513,-1.5154,-1.517,-1.5192,-1.5202,-1.5219,-1.5236,-1.5229,-1.5229,-1.5218,-1.5126,-1.5105,-1.5173,-1.5173,-1.5172,-1.5172,-1.5171,-1.5197,-1.5171,-1.5221,-1.5238,-1.5265,-1.5296,-1.5287,-1.5321,-1.5333,-1.5352,-1.5335,-1.5267,-1.526,-1.5253,-1.5236,-1.5334,-1.5334,-1.5334,-1.5334,-1.5256,-1.5251,-1.5301,-1.5328,-1.5354,-1.535,-1.5408,-1.5416,-1.5421,-1.5428,-1.5412,-1.5387,-1.538,-1.5378,-1.5368,-1.5352,-1.5477,-1.5477,-1.5477,-1.5323,-1.532,-1.537,-1.5374,-1.5394,-1.5412,-1.5465,-1.5497,-1.5497,-1.5483,-1.5434,-1.5428,-1.5388,-1.5375,-1.5364,-1.5348,-1.5319,0,0]}]]